K0JSC-13 Weather Reports


Display with metric or nautical units.
time (UTC)temp
F
wind
direction
speed
MPH
gust
MPH
rain 1hr
in
rain 24hr
in
rain mn
in
humidity
%
barometer
mb
20260508171803 69 244 2.0 10.0 0.00 0.00 0.00 37 991.7
20260508170903 68 137 4.0 18.0 0.00 0.00 0.00 39 991.9
20260508170003 66 126 8.0 18.0 0.00 0.00 0.00 41 992.0
20260508165404 66 118 8.0 16.0 0.00 0.00 0.00 39 992.1
20260508164503 65 124 9.0 15.0 0.00 0.00 0.00 39 992.1
20260508163603 65 127 10.0 19.0 0.00 0.00 0.00 40 992.1
20260508162703 65 110 10.0 16.0 0.00 0.00 0.00 42 992.2
20260508161803 65 97 9.0 16.0 0.00 0.00 0.00 42 992.2
20260508160903 64 84 11.0 17.0 0.00 0.00 0.00 41 992.4
20260508160004 65 87 11.0 15.0 0.00 0.00 0.00 40 992.4
20260508155618 65 86 11.0 17.0 0.00 0.00 0.00 41 992.5
20260508154504 67 90 6.0 15.0 0.00 0.00 0.00 37 992.4
20260508153603 67 284 1.0 3.0 0.00 0.00 0.00 34 992.4
20260508152703 67 231 2.0 5.0 0.00 0.00 0.00 38 992.5
20260508151803 67 125 2.0 5.0 0.00 0.00 0.00 33 992.5
20260508150903 66 282 1.0 3.0 0.00 0.00 0.00 36 992.4
20260508150004 64 308 1.0 3.0 0.00 0.00 0.00 36 992.4
20260508145403 63 334 1.0 4.0 0.00 0.00 0.00 38 992.5
20260508144503 62 280 2.0 6.0 0.00 0.00 0.00 39 992.6
20260508143604 61 271 3.0 9.0 0.00 0.00 0.00 40 992.7
20260508142703 60 318 2.0 5.0 0.00 0.00 0.00 42 992.7
20260508141803 59 324 3.0 5.0 0.00 0.00 0.00 45 992.8
20260508140903 58 320 2.0 4.0 0.00 0.00 0.00 47 993.0
20260508140217 58 313 2.0 4.0 0.00 0.00 0.00 48 993.1
20260508135403 57 320 2.0 5.0 0.00 0.00 0.00 49 993.2
20260508134503 55 314 2.0 4.0 0.00 0.00 0.00 52 993.3
20260508133603 54 309 5.0 12.0 0.00 0.00 0.00 52 993.3
20260508132917 54 306 4.0 12.0 0.00 0.00 0.00 53 993.3
20260508131804 52 329 2.0 4.0 0.00 0.00 0.00 58 993.1
20260508131118 52 313 2.0 4.0 0.00 0.00 0.00 59 993.1
20260508130003 50 312 5.0 11.0 0.00 0.00 0.00 58 993.0
20260508125403 49 350 3.0 8.0 0.00 0.00 0.00 63 993.0
20260508124503 47 316 2.0 5.0 0.00 0.00 0.00 68 993.1
20260508123603 46 323 2.0 5.0 0.00 0.00 0.00 70 993.0
20260508122703 45 321 2.0 6.0 0.00 0.00 0.00 71 993.0
20260508121804 44 319 3.0 7.0 0.00 0.00 0.00 74 992.7
20260508120903 44 323 1.0 5.0 0.00 0.00 0.00 75 992.7
20260508120003 44 0 0.0 0.0 0.00 0.00 0.00 74 992.5
20260508115403 44 0 0.0 0.0 0.00 0.00 0.00 74 992.5
20260508114503 45 153 0.0 2.0 0.00 0.00 0.00 72 992.5
20260508113817 46 140 0.0 2.0 0.00 0.00 0.00 71 992.4
20260508112703 46 140 0.0 1.0 0.00 0.00 0.00 70 992.2
20260508112018 46 89 0.0 3.0 0.00 0.00 0.00 68 992.3
20260508110904 47 12 1.0 3.0 0.00 0.00 0.00 67 992.3
20260508110003 47 11 1.0 4.0 0.00 0.00 0.00 67 992.3
20260508105403 47 9 0.0 2.0 0.00 0.00 0.00 67 992.3
20260508104503 47 5 1.0 3.0 0.00 0.00 0.00 67 992.3
20260508103603 48 5 1.0 3.0 0.00 0.00 0.00 66 992.3
20260508102703 48 5 1.0 3.0 0.00 0.00 0.00 66 992.3
20260508101803 48 5 0.0 1.0 0.00 0.00 0.00 63 992.3
20260508100903 48 2 1.0 3.0 0.00 0.00 0.00 62 992.3
20260508100004 49 332 2.0 4.0 0.00 0.00 0.00 61 992.3
20260508095403 50 307 1.0 3.0 0.00 0.00 0.00 61 992.4
20260508094503 51 286 0.0 1.0 0.00 0.00 0.00 58 992.3
20260508093603 51 0 0.0 0.0 0.00 0.00 0.00 56 992.4
20260508092703 51 286 0.0 1.0 0.00 0.00 0.00 55 992.7
20260508091803 52 286 0.0 2.0 0.00 0.00 0.00 54 992.6
20260508090903 52 287 2.0 5.0 0.00 0.00 0.00 54 992.5
20260508090003 52 288 1.0 3.0 0.00 0.00 0.00 54 992.5
20260508085403 52 288 2.0 5.0 0.00 0.00 0.00 53 992.4
20260508084504 52 288 2.0 4.0 0.00 0.00 0.00 52 992.5
20260508083818 53 270 3.0 8.0 0.00 0.00 0.00 52 992.6
20260508082703 53 290 1.0 4.0 0.00 0.00 0.00 51 992.6
20260508081803 54 290 2.0 4.0 0.00 0.00 0.00 49 992.7
20260508080903 55 294 2.0 5.0 0.00 0.00 0.00 48 992.6
20260508080003 55 314 2.0 4.0 0.00 0.00 0.00 48 992.7
20260508075404 56 312 3.0 7.0 0.00 0.00 0.00 48 992.8
20260508074503 56 310 2.0 6.0 0.00 0.00 0.00 46 992.9
20260508073603 57 272 3.0 7.0 0.00 0.00 0.00 44 992.8
20260508072703 56 296 2.0 7.0 0.00 0.00 0.00 43 992.8
20260508071803 56 353 0.0 3.0 0.00 0.00 0.00 45 992.9
20260508070903 57 345 0.0 3.0 0.00 0.00 0.00 44 992.9
20260508070004 57 346 1.0 4.0 0.00 0.00 0.00 43 992.9
20260508065403 57 347 1.0 4.0 0.00 0.00 0.00 42 992.9
20260508064504 58 349 1.0 4.0 0.00 0.00 0.00 41 992.8
20260508063603 58 353 2.0 5.0 0.00 0.00 0.00 39 992.8
20260508062918 58 347 3.0 6.0 0.00 0.00 0.00 40 992.8
20260508061803 59 354 3.0 8.0 0.00 0.00 0.00 39 992.8
20260508060903 60 326 2.0 9.0 0.00 0.00 0.00 38 992.9
20260508060005 60 311 5.0 9.0 0.00 0.00 0.00 37 992.8
20260508055403 60 320 6.0 10.0 0.00 0.00 0.00 37 992.8
20260508054503 60 341 5.0 9.0 0.00 0.00 0.00 38 992.7
20260508053817 60 346 4.0 8.0 0.00 0.00 0.00 38 992.7
20260508052703 61 318 5.0 11.0 0.00 0.00 0.00 37 992.6
20260508051804 60 334 5.0 9.0 0.00 0.00 0.00 37 992.7
20260508050903 60 327 5.0 11.0 0.00 0.00 0.00 37 992.8
20260508050003 59 325 5.0 10.0 0.00 0.00 0.00 37 993.0
20260508045403 59 333 4.0 9.0 0.00 0.00 0.00 38 993.0
20260508044504 59 1 1.0 5.0 0.00 0.00 0.00 41 993.2
20260508043603 59 54 0.0 2.0 0.00 0.00 0.00 41 993.3
20260508042703 59 332 1.0 2.0 0.00 0.00 0.00 41 993.3
20260508041804 60 339 1.0 5.0 0.00 0.00 0.00 38 993.3
20260508041117 60 350 3.0 5.0 0.00 0.00 0.00 38 993.3
20260508040004 58 0 0.0 0.0 0.00 0.00 0.00 40 993.4
20260508035403 58 0 0.0 0.0 0.00 0.00 0.00 42 993.5
20260508034503 59 0 0.0 0.0 0.00 0.00 0.00 40 993.5
20260508033603 60 98 0.0 2.0 0.00 0.00 0.00 38 993.3
20260508032703 60 80 2.0 8.0 0.00 0.00 0.00 42 993.2
20260508031803 60 82 1.0 5.0 0.00 0.00 0.00 43 993.2
20260508030904 60 92 0.0 1.0 0.00 0.00 0.00 45 992.9
20260508030003 60 100 0.0 2.0 0.00 0.00 0.00 40 992.7
20260508025403 60 98 0.0 1.0 0.00 0.00 0.00 38 992.7
20260508024503 59 76 0.0 1.0 0.00 0.00 0.00 39 992.6
20260508023603 59 0 0.0 0.0 0.00 0.00 0.00 40 992.5
20260508022703 60 0 0.0 0.0 0.00 0.00 0.00 40 992.4
20260508021803 61 0 0.0 0.0 0.00 0.00 0.00 37 992.4
20260508020904 62 0 0.0 0.0 0.00 0.00 0.00 40 992.3
20260508020004 63 0 0.0 0.0 0.00 0.00 0.00 41 992.3
20260508015617 64 0 0.0 0.0 0.00 0.00 0.00 36 992.3
20260508014503 66 84 1.0 5.0 0.00 0.00 0.00 33 992.2
20260508013603 68 83 3.0 7.0 0.00 0.00 0.00 31 992.2
20260508012703 69 84 3.0 7.0 0.00 0.00 0.00 30 992.1
20260508011803 69 82 6.0 13.0 0.00 0.00 0.00 28 991.9
20260508010903 70 83 7.0 13.0 0.00 0.00 0.00 25 991.8
20260508010004 71 87 6.0 11.0 0.00 0.00 0.00 27 991.8
20260508005403 71 86 5.0 13.0 0.00 0.00 0.00 25 992.0
20260508004503 72 86 9.0 14.0 0.00 0.00 0.00 26 992.1
20260508003603 72 81 7.0 12.0 0.00 0.00 0.00 24 992.1
20260508002703 72 78 3.0 10.0 0.00 0.00 0.00 27 992.2
20260508001803 71 87 2.0 8.0 0.00 0.00 0.00 28 992.3
20260508001117 70 88 2.0 7.0 0.00 0.00 0.00 28 992.3
20260508000219 70 86 3.0 7.0 0.00 0.00 0.00 30 992.5
20260507235403 70 85 3.0 7.0 0.00 0.00 0.00 27 992.5
20260507234504 70 81 2.0 7.0 0.00 0.00 0.00 28 992.5
20260507233603 71 84 5.0 9.0 0.00 0.00 0.00 28 992.6
20260507232703 71 86 6.0 13.0 0.00 0.00 0.00 28 992.6
20260507231803 71 84 2.0 9.0 0.00 0.00 0.00 29 992.8
20260507230903 72 78 5.0 13.0 0.00 0.00 0.00 30 992.8
20260507230218 71 79 6.0 15.0 0.00 0.00 0.00 28 992.9
20260507225403 71 79 4.0 13.0 0.00 0.00 0.00 30 992.9
20260507224504 72 77 7.0 16.0 0.00 0.00 0.00 24 992.9
20260507223603 72 76 9.0 15.0 0.00 0.00 0.00 27 993.0
20260507222704 73 77 7.0 11.0 0.00 0.01 0.00 28 993.1
20260507221803 73 76 8.0 15.0 0.00 0.02 0.00 26 993.2
20260507220903 74 78 8.0 16.0 0.00 0.03 0.00 27 993.3
20260507220217 74 75 6.0 11.0 0.00 0.04 0.00 27 993.4
20260507215617 74 78 4.0 11.0 0.00 0.04 0.00 29 993.5
20260507214503 73 76 4.0 9.0 0.00 0.06 0.00 25 993.7
20260507213818 73 67 3.0 9.0 0.00 0.08 0.00 26 993.9
20260507212704 72 79 6.0 13.0 0.00 0.12 0.00 27 994.2
20260507211803 73 72 3.0 11.0 0.00 0.14 0.00 22 994.5
20260507210903 73 59 1.0 6.0 0.00 0.17 0.00 29 994.8
20260507210003 71 74 5.0 13.0 0.00 0.20 0.00 24 995.2
20260507205403 72 75 3.0 13.0 0.00 0.22 0.00 24 995.3
20260507204718 72 70 3.0 10.0 0.00 0.23 0.00 24 995.5
20260507203603 71 77 2.0 13.0 0.00 0.25 0.00 24 995.9
20260507202704 71 96 1.0 4.0 0.00 0.27 0.00 29 996.1
20260507201803 70 84 1.0 5.0 0.00 0.29 0.00 27 996.5
20260507201117 70 69 1.0 4.0 0.00 0.31 0.00 25 996.9
20260507200003 69 87 2.0 12.0 0.00 0.33 0.00 27 997.3
20260507195403 68 89 2.0 9.0 0.00 0.34 0.00 27 997.4
20260507194503 68 83 3.0 12.0 0.00 0.36 0.00 34 997.7
20260507193817 68 73 3.0 9.0 0.00 0.38 0.00 31 997.8
20260507192703 67 77 5.0 13.0 0.00 0.41 0.00 28 998.1
20260507192018 66 81 6.0 16.0 0.00 0.43 0.00 32 998.2
20260507190904 67 73 6.0 13.0 0.00 0.47 0.00 30 998.4
20260507190004 66 74 5.0 13.0 0.00 0.48 0.00 29 998.6
20260507185403 66 81 7.0 15.0 0.00 0.49 0.00 33 998.8
20260507184504 66 73 4.0 14.0 0.00 0.50 0.00 31 999.1
20260507183603 65 76 6.0 14.0 0.00 0.51 0.00 34 999.3
20260507182918 65 72 5.0 18.0 0.00 0.52 0.00 32 999.5
20260507181803 64 75 6.0 16.0 0.00 0.52 0.00 31 999.8
20260507180904 64 76 6.0 13.0 0.00 0.52 0.00 32 1000.1
20260507180003 63 69 5.0 16.0 0.00 0.52 0.00 28 1000.3
20260507175403 63 73 6.0 15.0 0.00 0.52 0.00 31 1000.4
20260507174503 62 77 8.0 15.0 0.00 0.52 0.00 33 1000.5
20260507173818 62 81 10.0 15.0 0.00 0.52 0.00 37 1000.7
20260507172703 61 83 10.0 16.0 0.00 0.52 0.00 38 1001.0